[[{"header":{"parameterUnit":"m.s-1","parameterCategory":2,"la1":30.2991,"la2":30.254,"lo1":-89.0895,"lo2":-89.0444,"dy":0.0017,"dx":0.0017,"nx":28,"ny":28,"refTime":"2023-04-23T21:00:00:Z","depth":"0","parameterNumber":2,"parameterNumberName":"U-component_of_CURRENTS"},"data":[0,0,0,0,0,0,0,0,0,0,0,0,0,0,0,0,0,0,0,0,0,0,0,0,0,0,0,0,0,0,0,0,0,0,0,0,0,0,0,0,0,0,0,0,0,0,0,0,0,0,0,0,0,0,0,0,0,0,0.2207,0.2207,0,0.2226,0.2226,0.2226,0.2236,0.2237,0.2237,0.2237,0.2192,0.2191,0.219,0,0,0,0,0,0,0,0,0,0,0,0,0,0.2147,0.2148,0.2207,0.2207,0.2208,0.2225,0.2226,0.2226,0.2236,0.2237,0.2237,0.2237,0.2193,0.2191,0.2189,0,0,0,0,0,0,0,0,0,0,0,0,0,0.2169,0.2149,0.2207,0.2216,0.2218,0.2225,0.2226,0.2226,0.2236,0.2237,0.2237,0.2237,0.2193,0.2191,0.2189,0.2171,0,0,0.2183,0.2182,0,0,0,0,0,0,0,0,0.2168,0.2171,0.2215,0.2216,0.2217,0.223,0.2188,0.2205,0.2236,0.2227,0.2237,0.2237,0.22,0.2197,0.2199,0.2169,0.2167,0.2183,0.2181,0.2181,0.218,0,0,0,0,0,0,0,0.2166,0.217,0.2213,0.2215,0.2217,0.2208,0.2212,0.2191,0.2209,0.2228,0.223,0.2234,0.22,0.2201,0.2198,0.2166,0.2183,0.2181,0.218,0.2179,0.2116,0.2116,0,0,0,0,0,0,0.2169,0.2169,0.2212,0.2213,0.2194,0.221,0.2213,0.2225,0.2211,0.221,0.2234,0.2235,0.2204,0.22,0.2196,0.2189,0.2181,0.2179,0.2177,0.2117,0.2116,0.2116,0,0,0,0,0,0,0.2168,0.2173,0.2211,0.2192,0.2197,0.2211,0.2223,0.2225,0.2228,0.2216,0.2214,0.2235,0.2204,0.2199,0.2183,0.2186,0.2178,0.2176,0.2117,0.2116,0.2116,0.2163,0,0,0,0,0,0,0.2166,0.2172,0.2177,0.2193,0.2198,0.2223,0.2223,0.2225,0.2231,0.2232,0.2217,0.2213,0.2204,0.2186,0.2181,0.2183,0.2174,0.2118,0.2117,0.2116,0.2162,0.2165,0.2166,0,0,0,0,0,0.2164,0.2171,0.2177,0.2182,0.2206,0.2223,0.2225,0.2234,0.2231,0.2236,0.2224,0.2214,0.2177,0.2185,0.2178,0.218,0.2118,0.2117,0.2116,0.2162,0.2164,0.2166,0,0,0,0,0,0,0.214,0.2173,0.218,0.2195,0.2211,0.2226,0.2228,0.2233,0.2228,0.2226,0.2211,0.2206,0.2194,0.2174,0.2183,0.2157,0.2144,0.2142,0.2181,0.2183,0.2185,0.2198,0.2173,0,0,0,0,0,0.2139,0.2154,0.2182,0.2189,0.22,0.2213,0.2218,0.2229,0.223,0.2229,0.2217,0.2199,0.2183,0.2174,0.2158,0.2143,0.2165,0.2137,0.2139,0.2141,0.2146,0.219,0.2198,0.2112,0.2112,0.2112,0,0,0.2129,0.2148,0.2155,0.2185,0.2195,0.2209,0.2216,0.2231,0.2235,0.2222,0.2214,0.2205,0.218,0.2171,0.2162,0.2156,0.2179,0.2139,0.2142,0.2145,0.219,0.2199,0.2207,0.2112,0.2112,0.2112,0,0,0.2114,0.2137,0.2146,0.2166,0.2192,0.2204,0.2209,0.2229,0.2232,0.2227,0.222,0.2219,0.2184,0.2184,0.2174,0.2171,0.2188,0.2156,0.2178,0.2222,0.2231,0.2238,0.2296,0.2309,0.2157,0.2157,0.2157,0,0.2097,0.2118,0.2148,0.2165,0.2178,0.2201,0.2212,0.222,0.2229,0.2234,0.2226,0.221,0.2193,0.2195,0.2196,0.2179,0.2212,0.2177,0.2229,0.2237,0.2244,0.2301,0.2315,0.2159,0.2159,0.2158,0.2158,0,0.2095,0.2113,0.2119,0.2149,0.2169,0.2181,0.2208,0.222,0.2222,0.2233,0.2239,0.2231,0.2228,0.2218,0.2204,0.2238,0.225,0.2232,0.2233,0.2256,0.2314,0.2327,0.2162,0.2161,0.2161,0.216,0,0,0.2044,0.2105,0.2104,0.212,0.2164,0.2177,0.2195,0.2219,0.2234,0.2242,0.2263,0.2247,0.2264,0.2253,0.2249,0.228,0.2363,0.2279,0.228,0.2355,0.2482,0.2529,0.2548,0.2363,0.2365,0.2366,0.2511,0,0.2026,0.2054,0.209,0.2107,0.2124,0.2165,0.2181,0.2211,0.2231,0.226,0.2273,0.2288,0.227,0.2284,0.2314,0.2351,0.2396,0.2326,0.2432,0.2435,0.249,0.2564,0.2494,0.262,0.2524,0.2526,0.2528,0,0.2004,0.203,0.2049,0.2099,0.211,0.2126,0.217,0.2188,0.2242,0.2267,0.2303,0.2325,0.2377,0.2354,0.2453,0.2414,0.2452,0.248,0.2486,0.2521,0.2506,0.2575,0.2647,0.2609,0.2548,0.2546,0.2544,0,0.1949,0.1995,0.2007,0.2024,0.2087,0.2102,0.2129,0.2185,0.2226,0.2283,0.234,0.2384,0.2443,0.2485,0.2556,0.2512,0.2678,0.2621,0.2702,0.2706,0.2662,0.2659,0.2723,0.2695,0.2695,0.2694,0.2694,0,0.1913,0.192,0.1984,0.1992,0.2017,0.2068,0.2106,0.2144,0.2231,0.229,0.2344,0.2426,0.2482,0.2583,0.2604,0.2726,0.2726,0.2736,0.2756,0.2677,0.2674,0.2649,0.2616,0.27,0.2699,0.2698,0.2697,0,0.1851,0.1889,0.1911,0.1974,0.1994,0.2009,0.2109,0.2146,0.2234,0.2322,0.2356,0.25,0.2638,0.2711,0.2814,0.2821,0.2845,0.2933,0.2852,0.286,0.287,0.2842,0.282,0.2725,0.3038,0.304,0.3042,0,0.1823,0.1829,0.1891,0.1912,0.194,0.1986,0.2027,0.2127,0.2186,0.2368,0.2416,0.2601,0.2718,0.2927,0.2986,0.3078,0.2954,0.3049,0.2939,0.2899,0.288,0.2736,0.2644,0.2903,0.2904,0.2904,0.2905,0,0.1776,0.1798,0.1824,0.1868,0.1907,0.1959,0.2028,0.2089,0.2209,0.2314,0.2478,0.2597,0.2839,0.2939,0.3091,0.3116,0.2926,0.3063,0.3029,0.2806,0.2641,0.255,0.2791,0.2909,0.2908,0.2908,0.2908,0.2907,0.1741,0.1749,0.1787,0.1826,0.187,0.192,0.1943,0.2041,0.2143,0.2277,0.2442,0.2596,0.2818,0.3043,0.3058,0.3088,0.3004,0.3002,0.2984,0.285,0.2714,0.2991,0.3121,0.3122,0.3122,0.3123,0.3123,0,0.1699,0.1717,0.1748,0.1786,0.1807,0.1855,0.1933,0.1953,0.2037,0.2212,0.2347,0.2609,0.2763,0.2918,0.3084,0.302,0.2815,0.2943,0.2697,0.2615,0.289,0.284,0.2905,0.2905,0.2905,0.2905,0.2905,0.2905,0.1677,0.1684,0.1704,0.1716,0.174,0.1744,0.1773,0.1821,0.1932,0.2105,0.227,0.2436,0.2792,0.306,0.3092,0.2996,0.2728,0.2645,0.2591,0.2788,0.2789,0.279,0.2735,0.2777,0.2777,0.2186,0.2182,0.2179]},{"header":{"parameterUnit":"m.s-1","parameterCategory":2,"la1":30.2991,"la2":30.254,"lo1":-89.0895,"lo2":-89.0444,"dy":0.0017,"dx":0.0017,"nx":28,"ny":28,"refTime":"2023-04-23T21:00:00:Z","depth":"0","parameterNumber":3,"parameterNumberName":"V-component_of_CURRENTS"},"data":[0,0,0,0,0,0,0,0,0,0,0,0,0,0,0,0,0,0,0,0,0,0,0,0,0,0,0,0,0,0,0,0,0,0,0,0,0,0,0,0,0,0,0,0,0,0,0,0,0,0,0,0,0,0,0,0,0,0,-0.0433,-0.0434,0,-0.0461,-0.0462,-0.0462,-0.0502,-0.0502,-0.0503,-0.0504,-0.0546,-0.0547,-0.0547,0,0,0,0,0,0,0,0,0,0,0,0,0,-0.0401,-0.0402,-0.0433,-0.0434,-0.0434,-0.0461,-0.0462,-0.0462,-0.0501,-0.0502,-0.0503,-0.0504,-0.0546,-0.0546,-0.0547,0,0,0,0,0,0,0,0,0,0,0,0,0,-0.0421,-0.0402,-0.0433,-0.0457,-0.0459,-0.0461,-0.0462,-0.0462,-0.0501,-0.0502,-0.0503,-0.0504,-0.0546,-0.0546,-0.0547,-0.0531,0,0,-0.0549,-0.055,0,0,0,0,0,0,0,0,-0.042,-0.0422,-0.0453,-0.0455,-0.0458,-0.0479,-0.0466,-0.0486,-0.0501,-0.0485,-0.0504,-0.0505,-0.0524,-0.0527,-0.053,-0.0533,-0.0535,-0.055,-0.055,-0.055,-0.055,0,0,0,0,0,0,0,-0.0418,-0.0421,-0.0444,-0.0453,-0.0456,-0.0462,-0.0466,-0.047,-0.0499,-0.0487,-0.049,-0.0492,-0.0526,-0.0529,-0.0531,-0.0536,-0.0549,-0.055,-0.0551,-0.0551,-0.0549,-0.0548,0,0,0,0,0,0,-0.0414,-0.042,-0.0443,-0.0445,-0.0441,-0.0462,-0.0466,-0.0471,-0.0499,-0.0504,-0.0492,-0.0494,-0.0527,-0.053,-0.0533,-0.0517,-0.055,-0.0551,-0.0551,-0.0549,-0.0549,-0.0548,0,0,0,0,0,0,-0.0414,-0.0416,-0.0442,-0.0433,-0.0437,-0.0461,-0.0466,-0.0471,-0.0477,-0.0502,-0.0508,-0.0492,-0.0528,-0.0532,-0.0533,-0.0519,-0.0551,-0.0552,-0.055,-0.0549,-0.0548,-0.0486,0,0,0,0,0,0,-0.0412,-0.0416,-0.0412,-0.0433,-0.0437,-0.0433,-0.0466,-0.0471,-0.0477,-0.048,-0.0504,-0.051,-0.0529,-0.0532,-0.0534,-0.0521,-0.0553,-0.055,-0.0549,-0.0549,-0.0489,-0.0483,-0.0478,0,0,0,0,0,-0.0411,-0.0394,-0.0412,-0.0415,-0.0434,-0.0432,-0.0434,-0.0455,-0.0475,-0.0466,-0.0488,-0.0509,-0.0528,-0.0532,-0.0534,-0.0521,-0.0551,-0.055,-0.0549,-0.0491,-0.0484,-0.0479,0,0,0,0,0,0,-0.037,-0.0398,-0.0417,-0.0409,-0.0419,-0.0439,-0.0429,-0.045,-0.046,-0.0466,-0.0497,-0.0502,-0.0503,-0.0518,-0.0522,-0.052,-0.0545,-0.0544,-0.05,-0.0494,-0.0489,-0.047,-0.0553,0,0,0,0,0,-0.0362,-0.0363,-0.0387,-0.0379,-0.0382,-0.0407,-0.0409,-0.0426,-0.044,-0.0446,-0.0464,-0.0484,-0.0499,-0.0501,-0.0516,-0.0505,-0.0537,-0.0501,-0.0496,-0.0491,-0.0479,-0.0522,-0.052,-0.0544,-0.0544,-0.0544,0,0,-0.0342,-0.0358,-0.0358,-0.0371,-0.0381,-0.0367,-0.041,-0.0408,-0.0397,-0.0448,-0.0434,-0.0467,-0.0494,-0.0489,-0.049,-0.0499,-0.0501,-0.049,-0.0485,-0.0475,-0.0521,-0.0518,-0.0516,-0.0544,-0.0544,-0.0544,0,0,-0.0293,-0.0319,-0.0299,-0.0306,-0.032,-0.0334,-0.0332,-0.0351,-0.0361,-0.0356,-0.0397,-0.0418,-0.0428,-0.0448,-0.046,-0.0432,-0.0477,-0.044,-0.0392,-0.0434,-0.0432,-0.0431,-0.047,-0.0473,-0.0432,-0.0432,-0.0432,0,-0.0265,-0.0254,-0.0289,-0.027,-0.0268,-0.0315,-0.0287,-0.0297,-0.0315,-0.032,-0.0342,-0.0381,-0.0406,-0.0411,-0.0404,-0.042,-0.0452,-0.0412,-0.0427,-0.0427,-0.0427,-0.0467,-0.0471,-0.0429,-0.0429,-0.043,-0.043,0,-0.0202,-0.0195,-0.018,-0.0179,-0.0178,-0.0164,-0.0187,-0.019,-0.0216,-0.0235,-0.0252,-0.0296,-0.0322,-0.0336,-0.0358,-0.0368,-0.0395,-0.0421,-0.0441,-0.042,-0.0465,-0.047,-0.0424,-0.0425,-0.0426,-0.0427,0,0,-0.0135,-0.0136,-0.0132,-0.0124,-0.0134,-0.0127,-0.011,-0.0113,-0.0113,-0.0142,-0.0144,-0.0179,-0.0224,-0.024,-0.0285,-0.0316,-0.0348,-0.0358,-0.0362,-0.0394,-0.0441,-0.0451,-0.0458,-0.0381,-0.0381,-0.0381,-0.0473,0,-0.0074,-0.0031,-0.0044,-0.0001,0.0016,-0.002,-0.0004,-0.0018,-0.0043,-0.0057,-0.0116,-0.0138,-0.0181,-0.0205,-0.024,-0.0326,-0.0358,-0.032,-0.0459,-0.0463,-0.0472,-0.0463,-0.044,-0.0519,-0.0479,-0.048,-0.048,0,-0.0009,0.0006,0.0056,0.0063,0.0069,0.0088,0.0083,0.0091,0.0056,0.0032,-0.0005,-0.0058,-0.0106,-0.0154,-0.0272,-0.0248,-0.033,-0.0397,-0.0403,-0.0434,-0.0482,-0.0534,-0.0531,-0.0692,-0.0489,-0.0488,-0.0488,0,0.0036,0.0074,0.011,0.0115,0.0122,0.0136,0.0137,0.0115,0.012,0.0081,0.0071,-0.0001,-0.0044,-0.0148,-0.0275,-0.028,-0.0413,-0.0445,-0.0529,-0.0532,-0.0549,-0.0551,-0.0712,-0.0525,-0.0524,-0.0524,-0.0524,0,0.009,0.0118,0.013,0.0147,0.0184,0.0175,0.02,0.0187,0.0174,0.0187,0.0115,0.011,-0.0045,-0.0136,-0.0257,-0.0403,-0.0403,-0.0515,-0.0553,-0.0526,-0.0526,-0.0696,-0.0794,-0.0528,-0.0527,-0.0526,-0.0526,0,0.0123,0.0134,0.0172,0.0193,0.0202,0.0222,0.0241,0.0255,0.0238,0.0252,0.0244,0.0179,0.007,-0.0086,-0.0263,-0.0378,-0.0617,-0.0573,-0.0527,-0.0557,-0.0779,-0.0873,-0.1081,-0.116,-0.0682,-0.0683,-0.0684,0,0.0138,0.0163,0.02,0.0222,0.0233,0.0261,0.0279,0.028,0.0308,0.0306,0.0325,0.0235,0.0211,-0.0049,-0.0277,-0.0493,-0.065,-0.0631,-0.0634,-0.0784,-0.0918,-0.0991,-0.1047,-0.064,-0.0641,-0.0641,-0.0641,0,0.0167,0.0179,0.0209,0.0258,0.0288,0.0328,0.0366,0.0405,0.0419,0.0456,0.0507,0.0495,0.0251,0.0063,-0.0256,-0.0421,-0.0752,-0.0642,-0.0815,-0.0908,-0.0981,-0.1076,-0.0592,-0.0643,-0.0642,-0.0642,-0.0642,-0.0642,0.0183,0.0208,0.0253,0.0305,0.0345,0.0415,0.0481,0.0545,0.0632,0.0734,0.068,0.0722,0.0384,-0.0026,-0.0293,-0.0765,-0.078,-0.0887,-0.0993,-0.1055,-0.1122,-0.0634,-0.0714,-0.0714,-0.0715,-0.0715,-0.0715,0,0.0212,0.0251,0.0298,0.0375,0.0447,0.0456,0.0561,0.0658,0.0814,0.0887,0.0965,0.0835,0.0419,-0.0038,-0.0669,-0.1024,-0.1171,-0.1238,-0.1344,-0.1387,-0.0965,-0.0952,-0.1064,-0.1064,-0.1063,-0.1063,-0.1063,-0.1063,0.023,0.0293,0.0329,0.0465,0.0525,0.0657,0.0742,0.0888,0.0991,0.1146,0.1191,0.1172,0.0817,-0.0361,-0.1202,-0.141,-0.1661,-0.1726,-0.1872,-0.1588,-0.1563,-0.154,-0.155,-0.1785,-0.1786,-0.2227,-0.2232,-0.2235]}],[{"header":{"parameterUnit":"m.s-1","parameterCategory":2,"la1":30.2991,"la2":30.254,"lo1":-89.0895,"lo2":-89.0444,"dy":0.0017,"dx":0.0017,"nx":28,"ny":28,"refTime":"2023-04-23T21:00:00:Z","depth":"2","parameterNumber":2,"parameterNumberName":"U-component_of_CURRENTS"},"data":[0,0,0,0,0,0,0,0,0,0,0,0,0,0,0,0,0,0,0,0,0,0,0,0,0,0,0,0,0,0,0,0,0,0,0,0,0,0,0,0,0,0,0,0,0,0,0,0,0,0,0,0,0,0,0,0,0,0,0.2068,0.2068,0,0.2087,0.2087,0.2088,0.2105,0.2105,0.2105,0.2105,0.2083,0.2082,0.2082,0,0,0,0,0,0,0,0,0,0,0,0,0,0.2033,0.2034,0.2068,0.2068,0.2068,0.2087,0.2087,0.2088,0.2105,0.2105,0.2105,0.2105,0.2083,0.2082,0.2082,0,0,0,0,0,0,0,0,0,0,0,0,0,0.2052,0.2034,0.2068,0.2077,0.2078,0.2087,0.2087,0.2088,0.2105,0.2105,0.2105,0.2105,0.2083,0.2082,0.2081,0.2076,0,0,0.2079,0.2078,0,0,0,0,0,0,0,0,0.2051,0.2054,0.2076,0.2076,0.2077,0.2092,0.2067,0.2081,0.2105,0.2097,0.2105,0.2105,0.208,0.208,0.2087,0.2075,0.2074,0.2079,0.2078,0.2078,0.2077,0,0,0,0,0,0,0,0.205,0.2053,0.2078,0.2076,0.2077,0.2075,0.2079,0.207,0.2089,0.2098,0.2099,0.2097,0.2081,0.2088,0.2087,0.2074,0.2079,0.2078,0.2077,0.2077,0.2047,0.2047,0,0,0,0,0,0,0.2044,0.2052,0.2077,0.2078,0.2061,0.2076,0.208,0.2089,0.2091,0.209,0.2097,0.2098,0.209,0.2088,0.2086,0.2094,0.2078,0.2077,0.2076,0.2047,0.2047,0.2046,0,0,0,0,0,0,0.2043,0.2046,0.2076,0.2063,0.2066,0.2077,0.2087,0.2089,0.2105,0.209,0.209,0.2111,0.2089,0.2087,0.2085,0.2092,0.2077,0.2076,0.2047,0.2047,0.2047,0.21,0,0,0,0,0,0,0.2042,0.2046,0.2052,0.2063,0.2067,0.209,0.2087,0.2089,0.2102,0.2104,0.2101,0.2099,0.2089,0.2087,0.2084,0.2091,0.2075,0.2048,0.2047,0.2047,0.2099,0.2102,0.2104,0,0,0,0,0,0.2041,0.2045,0.2053,0.2056,0.2075,0.209,0.2093,0.2101,0.2103,0.2115,0.211,0.21,0.2081,0.2086,0.2083,0.209,0.2048,0.2047,0.2047,0.2098,0.2101,0.2104,0,0,0,0,0,0,0.2026,0.2047,0.2056,0.2065,0.2082,0.2092,0.21,0.2107,0.2115,0.2116,0.2104,0.2101,0.21,0.2083,0.2089,0.2076,0.206,0.2058,0.2099,0.2102,0.2105,0.2115,0.2074,0,0,0,0,0,0.2028,0.2041,0.206,0.2067,0.2078,0.2093,0.21,0.2109,0.2115,0.212,0.2118,0.2106,0.2093,0.2091,0.2078,0.2077,0.2094,0.2074,0.2077,0.208,0.2084,0.2124,0.2132,0.2044,0.2044,0.2044,0,0,0.2022,0.2034,0.2041,0.2065,0.2079,0.2096,0.2099,0.2116,0.2124,0.2113,0.2125,0.2118,0.2094,0.2093,0.209,0.2083,0.2115,0.2079,0.2082,0.2084,0.2125,0.2134,0.2142,0.2044,0.2044,0.2044,0,0,0.2014,0.2034,0.2045,0.2066,0.209,0.2099,0.2107,0.213,0.2139,0.2146,0.2138,0.2142,0.2122,0.2119,0.2108,0.2116,0.2128,0.2103,0.2129,0.2169,0.2178,0.2185,0.2234,0.2245,0.2105,0.2105,0.2105,0,0.2003,0.2023,0.2048,0.2068,0.208,0.2103,0.2117,0.213,0.2148,0.2155,0.2152,0.2147,0.2134,0.2135,0.2138,0.2125,0.2153,0.2124,0.2177,0.2184,0.2191,0.2239,0.2251,0.2108,0.2108,0.2107,0.2107,0,0.2007,0.2028,0.2037,0.207,0.209,0.2106,0.213,0.2149,0.2158,0.2169,0.2182,0.2178,0.2178,0.2171,0.2156,0.219,0.2197,0.218,0.2178,0.2204,0.2251,0.2263,0.2111,0.2111,0.211,0.2109,0,0,0.1962,0.2025,0.2028,0.2047,0.2093,0.2105,0.213,0.2153,0.2172,0.219,0.2214,0.2203,0.222,0.2209,0.2204,0.2234,0.2312,0.2232,0.2233,0.2297,0.2418,0.242,0.2433,0.2313,0.2315,0.2316,0.2438,0,0.1953,0.1985,0.202,0.2046,0.2067,0.2105,0.2126,0.2155,0.218,0.2213,0.2224,0.2244,0.2228,0.2243,0.2272,0.2304,0.2342,0.2282,0.2367,0.237,0.2383,0.2446,0.2258,0.2351,0.245,0.2452,0.2453,0,0.194,0.1966,0.1991,0.2041,0.2053,0.2073,0.2118,0.214,0.2195,0.2222,0.226,0.2281,0.2334,0.2312,0.2401,0.2369,0.2397,0.2419,0.2424,0.2414,0.2393,0.2334,0.2368,0.2472,0.2471,0.2469,0.2468,0,0.1889,0.194,0.1954,0.1973,0.2035,0.2053,0.2082,0.214,0.2184,0.2242,0.23,0.2342,0.2402,0.2435,0.25,0.2458,0.2607,0.2552,0.2579,0.258,0.243,0.2414,0.2611,0.2611,0.2611,0.2611,0.261,0,0.186,0.1871,0.1933,0.1944,0.197,0.2023,0.2066,0.2105,0.2195,0.2254,0.2308,0.2386,0.2441,0.2533,0.2544,0.2628,0.2652,0.2607,0.2618,0.2443,0.2428,0.2527,0.2515,0.2615,0.2614,0.2613,0.2612,0,0.1806,0.1843,0.1868,0.193,0.195,0.197,0.2075,0.2114,0.2205,0.2295,0.2329,0.2466,0.258,0.2643,0.2728,0.2714,0.2764,0.2779,0.2584,0.2569,0.2692,0.2681,0.2809,0.281,0.2811,0.2812,0.2812,0,0.178,0.1787,0.1852,0.1873,0.1904,0.1955,0.1996,0.21,0.2161,0.234,0.2385,0.2549,0.2626,0.2787,0.2808,0.2854,0.2848,0.2692,0.2562,0.2718,0.2716,0.2703,0.2692,0.2387,0.2384,0.2382,0.238,0,0.1738,0.1761,0.1788,0.1834,0.1876,0.1929,0.2002,0.2062,0.2183,0.2276,0.2415,0.2497,0.2674,0.2659,0.2751,0.2736,0.2663,0.2648,0.2878,0.2371,0.2331,0.2326,0.2326,0.236,0.2362,0.2363,0.2365,0.2365,0.1706,0.1716,0.1756,0.1794,0.184,0.1888,0.1914,0.1991,0.2078,0.2181,0.233,0.2389,0.2469,0.252,0.2488,0.2484,0.2637,0.2493,0.2495,0.2501,0.2435,0.24,0.243,0.2432,0.2434,0.2436,0.2437,0,0.1666,0.1686,0.1716,0.1755,0.1774,0.1829,0.1903,0.1901,0.1943,0.2065,0.2146,0.2051,0.2089,0.2171,0.2149,0.218,0.21,0.2079,0.194,0.1966,0.1988,0.1888,0.1742,0.1739,0.1736,0.1734,0,0,0.1645,0.1651,0.1668,0.1678,0.1707,0.1715,0.1742,0.1733,0.1795,0.1787,0.1818,0.1998,0.2126,0.1888,0.1893,0.1812,0.1858,0.1751,0.2323,0.2188,0.2205,0.2264,0.2147,0,0,0,0,0]},{"header":{"parameterUnit":"m.s-1","parameterCategory":2,"la1":30.2991,"la2":30.254,"lo1":-89.0895,"lo2":-89.0444,"dy":0.0017,"dx":0.0017,"nx":28,"ny":28,"refTime":"2023-04-23T21:00:00:Z","depth":"2","parameterNumber":3,"parameterNumberName":"V-component_of_CURRENTS"},"data":[0,0,0,0,0,0,0,0,0,0,0,0,0,0,0,0,0,0,0,0,0,0,0,0,0,0,0,0,0,0,0,0,0,0,0,0,0,0,0,0,0,0,0,0,0,0,0,0,0,0,0,0,0,0,0,0,0,0,-0.011,-0.011,0,-0.0162,-0.0163,-0.0164,-0.0213,-0.0213,-0.0214,-0.0214,-0.0291,-0.0293,-0.0295,0,0,0,0,0,0,0,0,0,0,0,0,0,-0.0095,-0.0095,-0.011,-0.011,-0.011,-0.0162,-0.0163,-0.0164,-0.0213,-0.0213,-0.0214,-0.0214,-0.0291,-0.0293,-0.0295,0,0,0,0,0,0,0,0,0,0,0,0,0,-0.0124,-0.0095,-0.011,-0.0137,-0.014,-0.0162,-0.0163,-0.0165,-0.0213,-0.0213,-0.0214,-0.0214,-0.029,-0.0293,-0.0296,-0.0308,0,0,-0.0304,-0.0305,0,0,0,0,0,0,0,0,-0.0122,-0.0125,-0.0133,-0.0136,-0.0139,-0.0177,-0.0186,-0.0212,-0.0213,-0.019,-0.0214,-0.0214,-0.0252,-0.0258,-0.0274,-0.0311,-0.0315,-0.0305,-0.0306,-0.0307,-0.0308,0,0,0,0,0,0,0,-0.012,-0.0123,-0.0135,-0.0133,-0.0137,-0.0162,-0.0166,-0.0192,-0.0223,-0.0192,-0.0195,-0.0193,-0.0255,-0.0271,-0.0276,-0.0316,-0.0304,-0.0307,-0.0309,-0.031,-0.0376,-0.0376,0,0,0,0,0,0,-0.0102,-0.0121,-0.0134,-0.0136,-0.0126,-0.0161,-0.0166,-0.0168,-0.0222,-0.0229,-0.0193,-0.0195,-0.0266,-0.0273,-0.0279,-0.0294,-0.0307,-0.031,-0.0312,-0.0376,-0.0376,-0.0376,0,0,0,0,0,0,-0.0101,-0.0102,-0.0131,-0.0126,-0.0131,-0.016,-0.0163,-0.0169,-0.0192,-0.0222,-0.023,-0.0209,-0.0266,-0.0275,-0.0301,-0.0297,-0.0311,-0.0314,-0.0376,-0.0376,-0.0376,-0.0325,0,0,0,0,0,0,-0.0101,-0.0102,-0.0101,-0.0125,-0.013,-0.0138,-0.0162,-0.017,-0.0188,-0.0192,-0.0238,-0.0246,-0.0267,-0.0297,-0.0304,-0.0301,-0.0316,-0.0376,-0.0376,-0.0376,-0.0327,-0.0324,-0.0321,0,0,0,0,0,-0.01,-0.0087,-0.0101,-0.0102,-0.0127,-0.0137,-0.0143,-0.0168,-0.0189,-0.0193,-0.0225,-0.0245,-0.0302,-0.0299,-0.0307,-0.0306,-0.0376,-0.0376,-0.0376,-0.0328,-0.0324,-0.0321,0,0,0,0,0,0,-0.0075,-0.0091,-0.0107,-0.0099,-0.0116,-0.0143,-0.0147,-0.017,-0.0201,-0.021,-0.0246,-0.0255,-0.0278,-0.03,-0.0295,-0.0326,-0.0342,-0.0344,-0.0303,-0.03,-0.0297,-0.0273,-0.0319,0,0,0,0,0,-0.0069,-0.0069,-0.0089,-0.0084,-0.0092,-0.0125,-0.0134,-0.0153,-0.0179,-0.0194,-0.0225,-0.0259,-0.0285,-0.0298,-0.0326,-0.0341,-0.0366,-0.0346,-0.0343,-0.034,-0.0328,-0.0369,-0.0368,-0.0376,-0.0376,-0.0376,0,0,-0.0058,-0.0065,-0.0067,-0.0079,-0.0099,-0.0099,-0.0133,-0.0144,-0.0146,-0.0197,-0.0215,-0.0252,-0.0288,-0.0305,-0.0317,-0.0322,-0.0352,-0.034,-0.0337,-0.0326,-0.0369,-0.0368,-0.0367,-0.0376,-0.0376,-0.0376,0,0,-0.0029,-0.0045,-0.0036,-0.0048,-0.0066,-0.0083,-0.0086,-0.0118,-0.0136,-0.0155,-0.0194,-0.0226,-0.0265,-0.0288,-0.0304,-0.0302,-0.0338,-0.0315,-0.0276,-0.0316,-0.0316,-0.0315,-0.0347,-0.035,-0.0309,-0.0309,-0.0308,0,-0.0015,-0.0006,-0.0034,-0.0027,-0.0029,-0.0073,-0.0062,-0.0084,-0.012,-0.013,-0.0151,-0.0218,-0.0253,-0.0272,-0.027,-0.0294,-0.0321,-0.0285,-0.0311,-0.0312,-0.0312,-0.0345,-0.0349,-0.0306,-0.0306,-0.0307,-0.0307,0,0.0021,0.0024,0.003,0.0023,0.0016,0.0018,-0.0009,-0.0025,-0.0055,-0.0077,-0.0111,-0.0164,-0.0199,-0.022,-0.0243,-0.0263,-0.0282,-0.0306,-0.0317,-0.0308,-0.0343,-0.0348,-0.0303,-0.0304,-0.0304,-0.0305,0,0,0.0063,0.0057,0.0058,0.0063,0.0043,0.0044,0.004,0.0027,0.0024,-0.0023,-0.0031,-0.0085,-0.0124,-0.0145,-0.0189,-0.0222,-0.0255,-0.0257,-0.0261,-0.0281,-0.0338,-0.034,-0.0346,-0.0285,-0.0286,-0.0286,-0.0361,0,0.0098,0.0125,0.0113,0.0136,0.0144,0.0111,0.0113,0.0093,0.0065,0.0044,-0.0016,-0.0045,-0.0092,-0.0114,-0.0153,-0.0232,-0.0265,-0.0231,-0.035,-0.0353,-0.0349,-0.0351,-0.0323,-0.0387,-0.0366,-0.0367,-0.0368,0,0.0136,0.015,0.018,0.0188,0.0189,0.0196,0.019,0.0186,0.0147,0.0122,0.0081,0.0031,-0.0024,-0.0069,-0.0186,-0.0163,-0.0239,-0.0301,-0.0306,-0.0325,-0.0363,-0.0393,-0.0397,-0.0377,-0.0376,-0.0375,-0.0375,0,0.0176,0.0197,0.0226,0.0228,0.0229,0.0236,0.0233,0.0207,0.0213,0.0169,0.0163,0.0084,0.0045,-0.0059,-0.018,-0.0188,-0.031,-0.0342,-0.0413,-0.0415,-0.0422,-0.0422,-0.042,-0.042,-0.0419,-0.0419,-0.0419,0,0.0216,0.0237,0.0246,0.0259,0.0292,0.0276,0.0299,0.0282,0.0268,0.0285,0.0206,0.0205,0.0045,-0.004,-0.0159,-0.0295,-0.0298,-0.0401,-0.0433,-0.0404,-0.0401,-0.0416,-0.0415,-0.0422,-0.0421,-0.0421,-0.042,0,0.0246,0.0252,0.0285,0.03,0.0309,0.0327,0.0347,0.0364,0.0342,0.0361,0.0354,0.0287,0.0182,0.0023,-0.0148,-0.026,-0.0396,-0.0443,-0.0391,-0.0415,-0.048,-0.0475,-0.0534,-0.0535,-0.0535,-0.0536,-0.0536,0,0.0261,0.0282,0.0316,0.034,0.0348,0.0375,0.0397,0.0394,0.0427,0.0426,0.0451,0.0362,0.0334,0.0082,-0.0143,-0.0357,-0.0386,-0.0474,-0.0484,-0.0466,-0.0492,-0.0486,-0.0481,-0.048,-0.048,-0.048,-0.048,0,0.0292,0.0303,0.0332,0.0383,0.0416,0.0461,0.0501,0.0545,0.0557,0.0594,0.0643,0.0623,0.0381,0.0183,-0.0128,-0.0275,-0.0441,-0.0479,-0.0484,-0.0446,-0.0419,-0.0442,-0.0438,-0.0479,-0.0479,-0.0479,-0.0479,-0.0479,0.0314,0.0342,0.0385,0.0438,0.0482,0.0557,0.062,0.0681,0.0768,0.0837,0.0799,0.0778,0.0514,0.0142,-0.0128,-0.0426,-0.0419,-0.0516,-0.0515,-0.0514,-0.0486,-0.046,-0.0522,-0.0523,-0.0523,-0.0523,-0.0523,0,0.0347,0.0385,0.0438,0.0513,0.0586,0.0594,0.0704,0.0779,0.0915,0.0947,0.0991,0.0771,0.0528,0.022,-0.0213,-0.0467,-0.0495,-0.0547,-0.0521,-0.052,-0.0519,-0.049,-0.0529,-0.0529,-0.053,-0.0531,0,0,0.0368,0.0433,0.0471,0.0601,0.0656,0.0777,0.0857,0.0961,0.1024,0.1081,0.1067,0.0991,0.0624,0.032,-0.0035,-0.0281,-0.0344,-0.0334,-0.0302,-0.0229,-0.0226,-0.0475,-0.0426,0,0,0,0,0]}],[{"header":{"parameterUnit":"m.s-1","parameterCategory":2,"la1":30.2991,"la2":30.254,"lo1":-89.0895,"lo2":-89.0444,"dy":0.0017,"dx":0.0017,"nx":28,"ny":28,"refTime":"2023-04-23T21:00:00:Z","depth":"4","parameterNumber":2,"parameterNumberName":"U-component_of_CURRENTS"},"data":[0,0,0,0,0,0,0,0,0,0,0,0,0,0,0,0,0,0,0,0,0,0,0,0,0,0,0,0,0,0,0,0,0,0,0,0,0,0,0,0,0,0,0,0,0,0,0,0,0,0,0,0,0,0,0,0,0,0,0.098,0.0981,0,0.1075,0.1076,0.1077,0.1181,0.1182,0.1184,0.1185,0.1289,0.1291,0.1292,0,0,0,0,0,0,0,0,0,0,0,0,0,0.0898,0.0898,0.098,0.0981,0.0983,0.1075,0.1076,0.1078,0.118,0.1182,0.1184,0.1186,0.1289,0.1291,0.1292,0,0,0,0,0,0,0,0,0,0,0,0,0,0.0957,0.0899,0.098,0.1045,0.1052,0.1075,0.1076,0.1078,0.118,0.1182,0.1184,0.1186,0.1288,0.129,0.1292,0.1261,0,0,0.1299,0.13,0,0,0,0,0,0,0,0,0.0953,0.096,0.1034,0.1041,0.1048,0.1118,0.1086,0.114,0.1179,0.1131,0.1185,0.1188,0.1231,0.1238,0.1251,0.1265,0.127,0.1299,0.13,0.1301,0.1302,0,0,0,0,0,0,0,0.0949,0.0956,0.1018,0.1035,0.1044,0.1073,0.1084,0.1096,0.1168,0.1136,0.1143,0.1153,0.1236,0.1249,0.1254,0.1271,0.1299,0.1301,0.1302,0.1303,0.1387,0.1388,0,0,0,0,0,0,0.0935,0.0952,0.1015,0.1021,0.1006,0.1072,0.1085,0.1094,0.1168,0.1181,0.1151,0.1158,0.1244,0.1252,0.1258,0.1344,0.1301,0.1303,0.1304,0.1386,0.1387,0.1389,0,0,0,0,0,0,0.0932,0.0939,0.1011,0.0989,0.1,0.1071,0.1081,0.1094,0.1147,0.1179,0.1194,0.1195,0.1246,0.1255,0.1317,0.1344,0.1304,0.1306,0.1385,0.1387,0.1388,0.1439,0,0,0,0,0,0,0.093,0.0938,0.0958,0.0988,0.1001,0.1056,0.1079,0.1095,0.1147,0.1158,0.122,0.123,0.1249,0.1314,0.1319,0.1347,0.1308,0.1384,0.1386,0.1388,0.1436,0.1442,0.1447,0,0,0,0,0,0.0926,0.0943,0.0958,0.0967,0.102,0.1057,0.1067,0.1125,0.1147,0.1179,0.1227,0.1231,0.1329,0.1316,0.1322,0.1351,0.1383,0.1385,0.1387,0.1434,0.1441,0.1447,0,0,0,0,0,0,0.0922,0.0956,0.0973,0.1001,0.1039,0.1075,0.111,0.1137,0.1197,0.1221,0.1247,0.126,0.1324,0.1325,0.131,0.1379,0.1354,0.1357,0.1387,0.1394,0.1399,0.1396,0.1309,0,0,0,0,0,0.0924,0.0948,0.0982,0.1008,0.1027,0.107,0.1098,0.1137,0.1182,0.1213,0.1251,0.129,0.1327,0.1354,0.1383,0.1418,0.1417,0.1438,0.1443,0.1448,0.1449,0.1466,0.1473,0.1396,0.1396,0.1396,0,0,0.0929,0.0952,0.0967,0.101,0.1042,0.1077,0.1094,0.1149,0.1191,0.1211,0.1286,0.1315,0.1341,0.1394,0.142,0.1406,0.1474,0.1451,0.1455,0.1453,0.1469,0.1476,0.1483,0.1397,0.1397,0.1397,0,0,0.0945,0.0971,0.0997,0.1026,0.1082,0.1108,0.1128,0.1181,0.1226,0.1288,0.1315,0.136,0.1415,0.1439,0.1455,0.1501,0.1504,0.1515,0.1543,0.156,0.1566,0.1572,0.1598,0.1606,0.1517,0.1517,0.1517,0,0.0955,0.0986,0.1013,0.1044,0.1076,0.1121,0.116,0.1202,0.1274,0.1308,0.1326,0.141,0.1432,0.1484,0.151,0.1514,0.1531,0.1518,0.1567,0.1573,0.1578,0.1603,0.161,0.1519,0.1519,0.1519,0.1519,0,0.0983,0.1018,0.1035,0.1087,0.1126,0.1168,0.122,0.1274,0.1325,0.1361,0.1437,0.1469,0.1518,0.1529,0.1541,0.1588,0.1594,0.1574,0.155,0.1588,0.1613,0.162,0.1523,0.1522,0.1521,0.1521,0,0,0.0979,0.1043,0.1054,0.1082,0.1155,0.1184,0.1259,0.1328,0.1374,0.1442,0.15,0.1557,0.1577,0.1596,0.161,0.1622,0.1677,0.1623,0.1623,0.1649,0.1736,0.167,0.1671,0.1676,0.1677,0.1678,0.1746,0,0.0999,0.1053,0.109,0.1151,0.1181,0.1243,0.1298,0.137,0.1431,0.1496,0.154,0.1599,0.1602,0.1635,0.1654,0.1675,0.1696,0.1661,0.1694,0.1695,0.1631,0.1676,0.1682,0.1751,0.1752,0.1753,0.1754,0,0.1013,0.105,0.111,0.1177,0.1198,0.1244,0.1338,0.1397,0.149,0.1538,0.1604,0.1646,0.1706,0.1687,0.1747,0.1734,0.1745,0.1746,0.1748,0.1669,0.1641,0.17,0.1766,0.1765,0.1764,0.1764,0.1763,0,0.0983,0.1061,0.1109,0.1132,0.1217,0.1265,0.1321,0.1413,0.147,0.157,0.1624,0.1692,0.1747,0.1769,0.1806,0.1788,0.1855,0.1822,0.177,0.1767,0.1783,0.1776,0.185,0.185,0.185,0.185,0.1849,0,0.0971,0.1011,0.1099,0.1118,0.1178,0.1252,0.1325,0.1388,0.149,0.1546,0.1645,0.1698,0.1772,0.183,0.1834,0.1838,0.1885,0.1785,0.1779,0.1805,0.18,0.1789,0.1781,0.1852,0.1852,0.1851,0.1851,0,0.0923,0.0983,0.1031,0.1126,0.116,0.1203,0.132,0.1369,0.1477,0.1558,0.1601,0.1732,0.181,0.1874,0.1916,0.1873,0.1873,0.1858,0.1911,0.1905,0.1767,0.1761,0.1801,0.1799,0.1797,0.1796,0.1795,0,0.0899,0.0921,0.1016,0.1047,0.1092,0.1173,0.1227,0.1345,0.1393,0.1556,0.1581,0.1724,0.1796,0.1818,0.1879,0.1904,0.1877,0.1866,0.1787,0.1772,0.1762,0.1758,0.1755,0.1793,0.1792,0.1792,0.1792,0,0.0844,0.0886,0.0923,0.0988,0.1046,0.11,0.1182,0.1213,0.1345,0.1463,0.1537,0.1609,0.1706,0.1764,0.1816,0.1815,0.1863,0.1849,0.1851,0.1776,0.1762,0.1753,0.1751,0.1786,0.1787,0.1787,0.1788,0,0.0799,0.0807,0.0863,0.0915,0.0979,0.1004,0.1061,0.1132,0.1203,0.1379,0.1398,0.1553,0.1674,0.172,0.1752,0.1774,0.1739,0.1662,0.1673,0.168,0.1612,0.1575,0.1543,0,0,0,0,0,0.0749,0.0755,0.0791,0.0838,0.0899,0.0942,0.1022,0.1085,0.1215,0.1232,0.1314,0.1398,0.1497,0.1579,0.1579,0.1703,0.174,0.1694,0.1653,0.1757,0.1763,0.1696,0,0,0,0,0,0,0.071,0.074,0.0758,0.0766,0.0796,0.0852,0.09,0.0989,0.1002,0.1145,0.1208,0.1324,0.1441,0.1494,0.156,0.1584,0.1531,0.1794,0.1791,0.1753,0.1759,0.1764,0.1697,0,0,0,0,0]},{"header":{"parameterUnit":"m.s-1","parameterCategory":2,"la1":30.2991,"la2":30.254,"lo1":-89.0895,"lo2":-89.0444,"dy":0.0017,"dx":0.0017,"nx":28,"ny":28,"refTime":"2023-04-23T21:00:00:Z","depth":"4","parameterNumber":3,"parameterNumberName":"V-component_of_CURRENTS"},"data":[0,0,0,0,0,0,0,0,0,0,0,0,0,0,0,0,0,0,0,0,0,0,0,0,0,0,0,0,0,0,0,0,0,0,0,0,0,0,0,0,0,0,0,0,0,0,0,0,0,0,0,0,0,0,0,0,0,0,0.0273,0.0272,0,0.0194,0.0193,0.0192,0.0152,0.0153,0.0153,0.0153,0.004,0.0038,0.0035,0,0,0,0,0,0,0,0,0,0,0,0,0,0.0314,0.0314,0.0273,0.0272,0.0271,0.0194,0.0193,0.0192,0.0152,0.0153,0.0153,0.0153,0.0041,0.0038,0.0034,0,0,0,0,0,0,0,0,0,0,0,0,0,0.0271,0.0314,0.0273,0.0243,0.024,0.0195,0.0193,0.0192,0.0152,0.0153,0.0153,0.0153,0.0043,0.0038,0.0034,0.0004,0,0,0.002,0.0018,0,0,0,0,0,0,0,0,0.0274,0.0269,0.0248,0.0245,0.0241,0.0184,0.0166,0.0127,0.0152,0.0185,0.0153,0.0153,0.0086,0.0078,0.0062,-0.0002,-0.0006,0.0019,0.0017,0.0015,0.0013,0,0,0,0,0,0,0,0.0277,0.0272,0.0241,0.0247,0.0243,0.0207,0.0202,0.0158,0.0134,0.0182,0.0179,0.0172,0.0084,0.0066,0.0059,-0.0008,0.002,0.0015,0.0013,0.0011,-0.0135,-0.0136,0,0,0,0,0,0,0.0292,0.0275,0.0243,0.0239,0.0259,0.0207,0.0201,0.0201,0.0135,0.0126,0.0172,0.017,0.0074,0.0064,0.0055,-0.0007,0.0015,0.001,0.0008,-0.0134,-0.0135,-0.0137,0,0,0,0,0,0,0.0293,0.029,0.0247,0.0255,0.0247,0.0207,0.0207,0.02,0.018,0.0128,0.0118,0.0159,0.0074,0.0061,0.0008,-0.0011,0.0008,0.0004,-0.0133,-0.0135,-0.0136,-0.0116,0,0,0,0,0,0,0.0295,0.0291,0.0294,0.0257,0.0248,0.0217,0.0207,0.0198,0.0176,0.0173,0.0114,0.0104,0.0073,0.0015,0.0004,-0.0017,0.0001,-0.0131,-0.0134,-0.0136,-0.0115,-0.0117,-0.0118,0,0,0,0,0,0.0297,0.0293,0.0295,0.0291,0.0254,0.0216,0.0208,0.0178,0.0175,0.0162,0.0122,0.0106,-0.0007,0.0011,-0.0003,-0.0025,-0.013,-0.0133,-0.0135,-0.0115,-0.0117,-0.0118,0,0,0,0,0,0,0.0307,0.0288,0.0289,0.028,0.0253,0.021,0.0193,0.0179,0.0137,0.0133,0.0091,0.0077,0.0021,-0.0005,0.0015,-0.0074,-0.0071,-0.0077,-0.0051,-0.0054,-0.0055,-0.0038,-0.0003,0,0,0,0,0,0.0315,0.0311,0.0285,0.0278,0.0266,0.0233,0.0215,0.0195,0.0156,0.0138,0.0099,0.0052,-0.0,-0.0027,-0.0075,-0.0121,-0.0133,-0.0146,-0.0147,-0.0148,-0.0144,-0.0177,-0.018,-0.0145,-0.0145,-0.0145,0,0,0.0317,0.0306,0.0304,0.028,0.0258,0.023,0.0221,0.0191,0.0165,0.0131,0.0083,0.0044,-0.0014,-0.0069,-0.0096,-0.0093,-0.0165,-0.0151,-0.0151,-0.0147,-0.018,-0.0183,-0.0186,-0.0147,-0.0147,-0.0146,0,0,0.0306,0.0311,0.0299,0.0279,0.0248,0.0227,0.0221,0.018,0.0159,0.0111,0.0077,0.0031,-0.0044,-0.0087,-0.012,-0.0159,-0.0172,-0.0176,-0.017,-0.0202,-0.0204,-0.0206,-0.0219,-0.0223,-0.0175,-0.0175,-0.0175,0,0.0305,0.0296,0.0286,0.0264,0.0249,0.0227,0.0205,0.0174,0.012,0.0106,0.0096,-0.0007,-0.0054,-0.012,-0.0136,-0.0161,-0.0172,-0.0155,-0.0201,-0.0204,-0.0206,-0.0219,-0.0223,-0.0175,-0.0175,-0.0175,-0.0175,0,0.0279,0.0274,0.0263,0.0237,0.0218,0.0195,0.0162,0.0138,0.0118,0.0093,0.0034,-0.0026,-0.0079,-0.011,-0.0138,-0.0187,-0.0185,-0.0197,-0.0189,-0.0208,-0.0221,-0.0226,-0.0174,-0.0174,-0.0174,-0.0174,0,0,0.027,0.025,0.0248,0.025,0.0207,0.0196,0.0152,0.0117,0.0113,0.0052,0.0034,-0.0064,-0.0072,-0.011,-0.0149,-0.0184,-0.0215,-0.0194,-0.0196,-0.0193,-0.0269,-0.0257,-0.0261,-0.0231,-0.0232,-0.0232,-0.0267,0,0.0253,0.0233,0.0217,0.0202,0.0195,0.017,0.0143,0.0112,0.0088,0.0067,0.0002,-0.003,-0.008,-0.009,-0.014,-0.0192,-0.0228,-0.0204,-0.0263,-0.0265,-0.024,-0.0267,-0.0235,-0.027,-0.0271,-0.0272,-0.0273,0,0.0232,0.023,0.0216,0.022,0.0214,0.0199,0.0188,0.0161,0.0119,0.0101,0.0053,0.0021,-0.0048,-0.0075,-0.0182,-0.0161,-0.0214,-0.0257,-0.026,-0.0257,-0.0262,-0.0251,-0.0281,-0.0281,-0.028,-0.0279,-0.0279,0,0.0254,0.0235,0.0239,0.0233,0.0219,0.0215,0.0206,0.0176,0.0187,0.0137,0.0151,0.0054,0.0035,-0.0063,-0.0156,-0.0165,-0.0257,-0.028,-0.0323,-0.0322,-0.0328,-0.0326,-0.0354,-0.0354,-0.0354,-0.0354,-0.0354,0,0.0251,0.0258,0.0259,0.0264,0.0288,0.0259,0.0287,0.0258,0.0252,0.0275,0.0188,0.0186,0.0041,-0.0025,-0.0133,-0.0236,-0.0242,-0.0324,-0.0335,-0.0319,-0.0316,-0.0331,-0.0328,-0.0355,-0.0355,-0.0355,-0.0355,0,0.0277,0.0267,0.0288,0.0292,0.0302,0.0324,0.0364,0.0392,0.0365,0.0392,0.0387,0.0302,0.0199,0.0061,-0.0088,-0.0181,-0.0295,-0.0329,-0.0283,-0.0291,-0.0345,-0.034,-0.0386,-0.0386,-0.0386,-0.0386,-0.0386,0,0.0286,0.0298,0.0333,0.0366,0.0373,0.0414,0.0451,0.0446,0.0479,0.0464,0.0481,0.0401,0.0322,0.0128,-0.0039,-0.0242,-0.0277,-0.0332,-0.0369,-0.0344,-0.0351,-0.0346,-0.0342,-0.0386,-0.0386,-0.0386,-0.0386,0,0.0318,0.0334,0.0363,0.0428,0.0477,0.0539,0.0583,0.0615,0.0609,0.0608,0.0567,0.0451,0.0336,0.0145,-0.0005,-0.0157,-0.03,-0.0332,-0.0334,-0.037,-0.0344,-0.035,-0.0346,-0.0386,-0.0386,-0.0386,-0.0386,0,0.0356,0.0387,0.0429,0.0485,0.0557,0.0615,0.0642,0.0669,0.0692,0.0659,0.0649,0.0499,0.0413,0.0191,0.0049,-0.0097,-0.015,-0.0208,-0.0218,-0.022,-0.0174,-0.0117,-0.0099,0,0,0,0,0,0.0383,0.0415,0.048,0.0532,0.0608,0.0637,0.0708,0.0725,0.0726,0.0712,0.0677,0.0562,0.0337,0.0237,0.0092,0.0034,-0.0181,-0.0142,-0.0254,-0.0385,-0.0385,-0.0361,0,0,0,0,0,0,0.0399,0.0459,0.048,0.056,0.0598,0.0675,0.0714,0.0722,0.0706,0.0687,0.0574,0.0517,0.0302,0.0415,0.0083,0.0039,-0.0054,-0.0245,-0.0249,-0.0385,-0.0385,-0.0385,-0.036,0,0,0,0,0]}]]